Weather History for Sheridan, WY

Change the Weather History Date:

Saturday, July 20, 2013

  Actual Average Record
Temperature  
Mean Temperature 74 °F 71 °F  
Max Temperature 92 °F 88 °F 102 °F (1960)
Min Temperature 55 °F 54 °F 39 °F (1915)
Degree Days  
Heating Degree Days 0 1  
Month to date heating degree days 0 24  
Since 1 June heating degree days 120 173  
Since 1 July heating degree days 0 24  
Cooling Degree Days 9 7  
Month to date cooling degree days 160 107  
Year to date cooling degree days 216 157  
Since 1 June cooling degree days 208 153  
Growing Degree Days 23 (Base 50)    
Moisture  
Dew Point 45 °F    
Average Humidity 45    
Maximum Humidity 72    
Minimum Humidity 18    
Precipitation  
Precipitation 0.00 in 0.04 in 0.65 in (2002)
Month to date precipitation 0.37 0.80  
Year to date precipitation 9.88 8.95  
Sea Level Pressure  
Sea Level Pressure 29.85 in    
Wind  
Wind Speed 4 mph (ESE)    
Max Wind Speed 13 mph    
Max Gust Speed 16 mph    
Visibility 10 miles    
Events      
T = Trace of Precipitation, MM = Missing Value Source: NWS Daily Summary

Daily Weather History Graph

Daily Weather History Graph

Search for Another Location

Airport:

Trip Planner

Search our weather history database for the weather conditions in past years. The results will help you decide how hot, cold, wet, or windy it might be!

Date:

Astronomy

Jul. 20, 2013 Rise Set
Actual Time 5:41 AM MDT 8:46 PM MDT
Civil Twilight 5:06 AM MDT 9:21 PM MDT
Nautical Twilight 4:21 AM MDT 10:06 PM MDT
Astronomical Twilight 3:26 AM MDT 11:00 PM MDT
Moon 6:52 PM MDT (7/20) 3:24 AM MDT (7/20)
Length of Visible Light 16h 15m
Length of Day
15h 05m
Waxing Gibbous, 94% of the Moon is Illuminated
Jul 20
Waxing Gibbous
Jul 22
Full
Jul 29
Last Quarter
Aug 6
New
Aug 14
First Quarter

Hourly Weather History & Observations

Time (MDT) Temp. Dew Point Humidity Pressure Visibility Wind Dir Wind Speed Gust Speed Precip Events Conditions
12:53 AM 69.1 °F 46.0 °F 44% 29.88 in 10.0 mi WNW 4.6 mph - N/A   Clear
1:53 AM 64.9 °F 48.0 °F 54% 29.88 in 10.0 mi ESE 3.5 mph - N/A   Clear
2:53 AM 62.1 °F 46.9 °F 58% 29.88 in 10.0 mi Calm Calm - N/A   Clear
3:53 AM 60.1 °F 48.0 °F 64% 29.89 in 10.0 mi SE 3.5 mph - N/A   Clear
4:53 AM 57.0 °F 46.0 °F 67% 29.89 in 10.0 mi SW 4.6 mph - N/A   Clear
5:53 AM 55.0 °F 46.0 °F 72% 29.90 in 10.0 mi SSW 5.8 mph - N/A   Clear
6:53 AM 66.9 °F 46.0 °F 47% 29.89 in 10.0 mi West 5.8 mph - N/A   Clear
7:53 AM 71.1 °F 45.0 °F 39% 29.90 in 10.0 mi West 4.6 mph - N/A   Clear
8:53 AM 75.0 °F 44.1 °F 33% 29.91 in 10.0 mi WNW 11.5 mph - N/A   Clear
9:53 AM 80.1 °F 46.0 °F 30% 29.90 in 10.0 mi NW 10.4 mph - N/A   Clear
10:53 AM 82.9 °F 45.0 °F 26% 29.88 in 10.0 mi East 5.8 mph - N/A   Clear
11:53 AM 84.9 °F 46.0 °F 26% 29.88 in 10.0 mi Variable 4.6 mph - N/A   Clear
12:53 PM 86.0 °F 44.1 °F 23% 29.86 in 10.0 mi Calm Calm - N/A   Clear
1:53 PM 88.0 °F 42.1 °F 20% 29.85 in 10.0 mi NE 5.8 mph - N/A   Clear
2:53 PM 88.0 °F 43.0 °F 21% 29.84 in 10.0 mi East 4.6 mph - N/A   Clear
3:53 PM 90.0 °F 42.1 °F 19% 29.82 in 10.0 mi Calm Calm - N/A   Clear
4:53 PM 91.0 °F 43.0 °F 19% 29.80 in 10.0 mi Calm Calm - N/A   Clear
5:53 PM 90.0 °F 44.1 °F 20% 29.78 in 10.0 mi ENE 5.8 mph - N/A   Clear
6:53 PM 88.0 °F 41.0 °F 19% 29.76 in 10.0 mi East 3.5 mph - N/A   Partly Cloudy
7:53 PM 82.0 °F 45.0 °F 27% 29.77 in 10.0 mi NE 6.9 mph - N/A   Clear
8:53 PM 79.0 °F 43.0 °F 28% 29.78 in 10.0 mi Calm Calm - N/A   Clear
9:53 PM 66.9 °F 46.9 °F 49% 29.82 in 10.0 mi Calm Calm - N/A   Clear
10:53 PM 64.9 °F 48.0 °F 54% 29.83 in 10.0 mi SSW 5.8 mph - N/A   Clear
11:53 PM 62.1 °F 48.0 °F 60% 29.82 in 10.0 mi South 4.6 mph - N/A   Clear